Temperature
2 3 3 3 3 3 3 3 4 4 4 5 5 4 5 4 4 3 3 3 3 3 3 3 3 4 4 4 4 4 4 4 5 5 5 5 5 5 5 5 5 5 5 5
2 3 3 2 3 3 3 3 3 3 3 4 5 5 4 3 3 2 2 2 2 2 2 2 3 3 3 3 3 4 4 4 4 4 4 4 4 4 4 4 4 4 4 4
2 3 2 1 2 2 3 3 3 3 3 3 3 3 3 3 2 2 1 1 1 1 1 2 2 2 2 3 3 3 3 3 3 3 3 4 4 4 4 4 4 4 4 3
1 1 1 2 2 2 2 1 2 2 2 2 3 3 3 3 2 1 1 1 1 1 1 1 2 2 2 2 2 2 2 2 3 3 3 3 3 3 3 3 3 3 3 3
0 1 1 2 1 1 0 0 1 1 1 2 2 2 2 2 1 1 1 0 1 1 1 1 1 1 2 2 2 2 2 2 2 2 2 2 2 2 2 2 2 2 2 2
0 1 1 1 0 0 0 -0 0 1 0 1 1 -0 0 1 1 0 0 0 0 0 0 0 1 1 1 1 1 1 1 1 1 2 2 2 2 2 2 2 2 2 1 2
-1 -0 0 -0 -1 -0 0 0 0 1 0 0 -0 -0 0 0 0 -0 -0 -0 -1 -0 -0 -0 -0 0 0 0 1 1 1 1 1 1 1 1 1 1 1 1 1 1 1 1
-1 -1 -0 -1 -1 -1 -1 -0 -0 -0 -0 -1 -1 -1 -1 -1 -1 -1 -1 -1 -1 -1 -1 -1 -1 -0 -0 -0 0 0 1 1 1 1 1 0 0 0 0 0 0 0 0 0
-2 -1 -1 -1 -1 -1 -1 -1 -1 -1 -1 -1 -2 -1 -1 -1 -1 -2 -2 -2 -2 -2 -1 -1 -1 -1 -1 -1 -0 0 0 0 0 0 0 -0 -0 -0 -0 -0 -0 -0 -0 -0
-3 -2 -1 -1 -1 -1 -1 -2 -2 -2 -2 -2 -2 -2 -2 -2 -2 -2 -2 -2 -2 -2 -2 -2 -2 -2 -1 -1 -1 -0 -0 -0 -0 -1 -1 -1 -1 -1 -1 -1 -0 -1 -1 -1
-3 -3 -1 -1 -1 -1 -2 -2 -2 -2 -2 -2 -2 -2 -3 -3 -3 -3 -3 -3 -3 -2 -2 -2 -2 -2 -2 -1 -1 -1 -1 -1 -1 -1 -1 -1 -1 -1 -1 -1 -1 -1 -1 -1
-3 -2 -3 -2 -1 -2 -2 -2 -2 -2 -3 -3 -3 -3 -3 -3 -3 -3 -3 -3 -3 -3 -3 -2 -2 -2 -2 -2 -2 -2 -2 -2 -2 -2 -2 -2 -2 -2 -2 -2 -2 -2 -1 -2
-1 -1 -2 -2 -2 -2 -2 -3 -3 -3 -3 -3 -3 -3 -3 -3 -3 -3 -3 -3 -3 -3 -3 -3 -3 -3 -3 -3 -2 -2 -2 -2 -2 -2 -3 -2 -2 -2 -2 -2 -3 -2 -2 -2
-2 -2 -3 -2 -3 -3 -3 -3 -3 -3 -3 -3 -3 -3 -4 -4 -4 -4 -3 -4 -4 -4 -3 -3 -3 -3 -3 -3 -3 -3 -3 -3 -3 -3 -3 -3 -3 -3 -3 -3 -3 -3 -3 -3
-3 -3 -3 -3 -3 -3 -3 -4 -4 -4 -4 -4 -4 -4 -4 -4 -4 -4 -4 -4 -4 -4 -4 -4 -4 -3 -3 -4 -4 -4 -4 -4 -4 -4 -4 -3 -3 -3 -3 -3 -3 -3 -3 -3
-3 -3 -3 -4 -4 -4 -4 -4 -4 -4 -4 -4 -4 -4 -4 -4 -4 -4 -4 -4 -4 -4 -4 -4 -4 -4 -4 -4 -4 -4 -4 -4 -4 -4 -4 -4 -4 -4 -4 -4 -4 -4 -4 -4
-4 -4 -4 -4 -4 -4 -4 -5 -4 -4 -5 -4 -4 -4 -4 -4 -4 -5 -4 -4 -4 -4 -4 -4 -4 -4 -4 -4 -4 -4 -4 -4 -4 -4 -4 -4 -4 -4 -4 -4 -4 -4 -4 -4
-4 -4 -4 -4 -4 -5 -5 -5 -5 -5 -5 -5 -5 -5 -5 -5 -5 -5 -5 -5 -5 -5 -4 -5 -5 -5 -5 -5 -5 -5 -5 -5 -5 -5 -5 -5 -5 -5 -5 -5 -5 -5 -5 -5
-4 -4 -4 -4 -4 -4 -5 -5 -5 -5 -5 -5 -5 -5 -5 -5 -5 -5 -5 -5 -5 -5 -5 -5 -5 -5 -5 -5 -5 -5 -5 -5 -5 -5 -5 -5 -5 -5 -5 -5 -5 -5 -5 -5
-4 -4 -4 -4 -4 -4 -4 -5 -5 -5 -5 -5 -5 -5 -5 -5 -5 -6 -5 -5 -5 -5 -5 -5 -5 -5 -5 -5 -5 -5 -5 -5 -5 -5 -5 -5 -5 -5 -5 -5 -5 -5 -5 -5
-4 -4 -5 -5 -5 -5 -5 -5 -5 -5 -5 -5 -5 -5 -5 -6 -6 -6 -6 -6 -5 -5 -5 -6 -5 -5 -5 -6 -6 -6 -6 -6 -6 -6 -6 -6 -6 -6 -6 -6 -6 -6 -6 -6
-5 -5 -5 -5 -5 -5 -5 -5 -5 -5 -5 -6 -6 -6 -6 -6 -6 -6 -6 -6 -6 -6 -6 -6 -6 -6 -6 -6 -6 -6 -6 -6 -6 -6 -6 -6 -6 -6 -6 -6 -6 -6 -6 -6
-5 -5 -5 -5 -5 -5 -5 -6 -6 -6 -6 -6 -6 -6 -6 -6 -6 -6 -6 -6 -6 -6 -6 -6 -6 -6 -6 -6 -6 -6 -6 -6 -6 -6 -6 -6 -6 -6 -6 -6 -6 -6 -6 -6
-5 -5 -5 -5 -5 -6 -6 -6 -6 -6 -6 -6 -6 -6 -6 -6 -6 -6 -6 -6 -6 -6 -6 -6 -6 -6 -7 -7 -7 -7 -7 -7 -7 -6 -6 -6 -6 -6 -6 -6 -6 -6 -6 -6
-5 -5 -6 -6 -6 -6 -6 -6 -6 -6 -6 -6 -6 -6 -6 -6 -6 -6 -7 -7 -7 -7 -7 -7 -7 -7 -7 -7 -7 -7 -7 -7 -7 -7 -7 -7 -7 -7 -7 -7 -7 -7 -7 -7
-6 -6 -6 -6 -6 -6 -6 -6 -6 -6 -6 -6 -6 -7 -7 -7 -7 -7 -7 -7 -7 -7 -7 -7 -7 -7 -7 -7 -7 -7 -7 -7 -7 -7 -7 -7 -7 -7 -7 -7 -7 -7 -7 -7
-6 -6 -6 -6 -6 -6 -6 -6 -7 -7 -7 -7 -7 -7 -7 -7 -7 -7 -7 -7 -7 -7 -7 -7 -7 -7 -7 -7 -7 -8 -8 -7 -7 -7 -7 -7 -7 -7 -7 -7 -7 -7 -7 -7
Wind_Speed
4 4 2 3 4 5 6 5 4 4 5 6 3 1 1 2 2 2 2 2 2 2 2 2 2 1 1 1 1 2 2 2 2 1 2 2 2 3 3 3 3 3 3 2
3 3 2 4 5 5 6 6 7 7 8 5 3 2 1 1 1 1 1 1 2 2 2 2 1 1 1 0 0 1 2 1 1 1 2 2 2 2 3 3 3 3 3 3
2 1 2 5 6 6 4 3 4 7 7 2 2 2 1 0 1 0 1 1 1 1 2 2 2 1 1 0 1 1 1 1 1 1 1 2 2 2 3 3 3 3 2 2
1 1 4 5 1 2 4 4 5 5 4 3 2 2 2 1 1 0 1 1 1 1 2 2 2 1 1 0 1 1 1 1 1 1 1 1 2 3 2 2 2 2 2 2
1 2 5 3 1 1 2 4 3 5 5 4 3 3 2 2 2 1 1 1 1 1 1 2 2 1 1 1 1 1 0 1 1 1 2 2 2 2 2 2 2 2 2 2
2 2 4 2 1 2 1 4 3 2 4 3 1 1 3 2 3 2 2 1 1 1 1 2 2 2 1 1 1 0 1 1 1 1 2 2 2 2 2 2 2 2 2 2
3 4 5 1 1 2 2 4 2 1 2 1 1 2 2 2 2 2 2 2 2 2 2 1 1 1 1 1 1 1 1 0 0 1 1 2 2 1 2 2 2 2 2 1
3 5 6 2 3 4 4 2 2 2 2 1 1 2 2 2 2 2 2 2 2 2 2 2 2 2 1 1 1 1 1 0 1 1 1 1 2 1 1 2 2 2 2 1
6 6 2 5 4 2 1 1 1 2 2 2 2 2 1 1 1 2 2 2 2 2 2 2 2 2 1 1 1 1 1 1 1 1 1 1 2 2 2 2 2 1 1 1
4 6 4 3 2 1 1 2 2 2 2 2 2 2 1 1 1 1 2 2 2 1 2 2 3 3 2 2 1 1 2 1 1 2 2 2 1 1 2 2 2 1 1 1
5 4 4 4 4 3 3 2 3 2 2 3 2 2 2 2 2 1 1 2 1 1 2 2 2 2 2 2 2 2 1 1 1 1 2 2 1 1 1 1 2 2 2 2
6 4 4 3 2 2 3 3 3 2 2 2 2 3 2 2 2 1 1 1 1 1 2 2 2 3 3 2 1 2 1 1 1 1 1 2 2 2 3 1 1 1 1 1
4 1 2 3 3 2 2 3 2 2 3 2 2 2 1 2 2 1 1 1 1 1 2 2 2 2 3 2 2 1 1 1 1 1 1 1 1 2 1 2 3 2 1 0
4 3 4 4 3 2 2 2 1 1 1 2 1 1 1 1 1 1 1 1 1 1 1 1 1 2 2 2 2 2 1 1 1 1 1 1 1 1 1 1 1 1 1 1
5 5 5 3 2 2 1 1 1 1 1 1 1 2 2 2 2 2 2 1 1 1 1 1 1 2 2 1 1 1 1 1 1 1 1 1 1 1 1 1 1 0 1 1
4 4 4 4 3 3 2 2 2 2 2 2 2 2 2 2 2 2 1 1 0 1 2 2 2 2 1 1 1 1 1 1 1 1 1 1 1 1 1 1 1 1 1 1
4 5 4 4 4 3 3 3 3 3 3 3 3 2 2 1 1 1 1 1 1 2 2 2 2 1 1 1 0 0 1 1 1 1 1 1 1 1 1 1 0 0 0 1
5 5 4 5 4 4 3 3 3 3 3 3 2 2 2 2 2 2 2 1 1 1 2 2 1 0 0 0 1 1 1 0 0 1 1 1 1 1 1 1 0 0 0 1
3 3 3 3 3 4 4 4 3 3 3 2 2 3 3 3 2 2 2 1 1 2 3 1 1 0 0 0 1 1 1 1 0 0 0 0 1 1 0 0 0 0 0 0
2 3 3 3 3 3 3 3 3 2 2 2 2 2 2 2 2 2 1 2 2 2 2 1 1 1 1 1 0 1 1 1 1 0 0 0 0 0 0 0 0 0 0 0
3 3 3 3 3 3 3 3 3 3 2 2 3 3 3 2 2 2 1 2 3 1 1 1 1 1 1 1 1 1 1 1 1 1 0 0 0 0 0 0 1 1 0 0
3 3 3 3 3 2 2 2 3 3 2 2 2 3 2 2 2 1 2 2 2 2 1 1 1 1 1 1 1 1 1 1 1 1 1 1 1 1 1 1 1 1 1 0
3 3 3 3 3 2 1 2 3 3 3 3 4 4 3 3 2 2 2 2 1 2 1 1 1 2 1 1 1 1 1 1 1 1 1 1 1 1 1 1 1 1 1 1
3 3 3 3 3 2 3 3 3 3 3 3 3 4 3 2 2 2 2 3 3 2 1 2 2 2 1 1 1 1 1 1 1 1 1 1 1 1 1 1 1 1 1 1
3 3 3 3 4 4 4 3 2 2 2 2 2 2 2 2 3 2 1 1 2 1 1 2 2 2 1 1 1 1 1 1 1 1 1 1 1 1 1 1 1 1 1 1
3 3 4 4 4 3 3 3 3 3 2 2 2 2 1 1 2 2 1 1 2 2 1 1 1 1 0 1 1 1 1 1 2 1 1 1 1 1 1 1 2 2 2 2
3 3 2 2 3 3 3 4 4 4 3 3 3 2 2 2 2 2 2 2 1 1 1 1 1 1 1 1 1 1 1 1 2 2 2 2 1 1 2 2 2 2 2 3
Wind_Direction
276 287 280 267 252 217 210 226 244 262 252 266 281 303 81 96 92 76 71 65 49 34 28 38 40 36 45 117 141 142 138 149 163 164 167 163 163 162 152 153 161 163 162 166
271 236 252 282 275 242 233 241 248 268 278 287 329 11 42 87 91 56 34 25 29 21 29 27 13 8 19 119 148 136 137 152 151 155 161 158 165 162 148 149 152 152 163 168
244 222 320 272 248 224 221 228 226 243 256 311 349 330 296 16 60 356 17 7 358 354 5 359 345 349 329 176 115 115 135 152 162 164 169 174 172 151 153 161 154 149 155 159
281 1 247 244 38 189 223 255 253 265 282 295 302 329 329 49 88 27 7 348 343 346 353 343 338 340 321 163 137 133 150 170 194 184 187 185 175 162 156 161 158 159 165 171
210 244 266 259 197 149 220 278 267 262 284 305 342 11 347 14 55 74 9 338 329 333 328 337 345 343 359 54 84 102 193 204 206 185 184 190 177 160 151 153 158 165 165 171
212 231 246 250 68 55 66 287 292 263 272 293 11 285 280 5 32 42 25 9 359 3 5 3 349 356 36 61 87 264 261 228 209 198 190 186 172 157 152 158 167 168 171 175
224 235 258 263 205 124 167 255 329 331 283 255 236 246 287 9 23 33 21 13 9 7 6 358 352 19 33 33 350 321 341 2 175 207 200 170 157 154 156 153 148 161 166 162
200 219 247 166 136 183 223 342 358 349 345 352 316 306 344 20 23 18 11 10 8 13 0 358 9 35 40 12 349 5 27 95 163 187 175 150 144 148 152 152 151 160 158 158
201 218 237 167 183 194 42 333 334 337 333 331 306 300 327 347 356 354 353 358 5 11 1 360 6 27 39 354 5 48 94 122 151 138 139 150 148 150 147 147 156 182 180 181
247 251 242 221 227 256 246 246 274 283 286 290 277 279 290 311 322 331 333 344 354 6 7 359 8 18 16 4 18 80 112 117 123 123 127 117 124 138 151 169 169 182 191 186
247 262 281 246 229 238 250 257 268 266 252 250 245 254 250 265 269 283 309 331 346 352 350 350 2 8 0 8 37 68 89 97 102 113 119 106 99 119 168 211 202 192 196 193
230 208 206 241 225 225 229 242 246 251 263 258 233 237 246 258 267 271 290 320 340 344 346 345 358 359 356 9 45 83 86 79 87 105 106 116 112 73 55 71 67 97 176 203
225 219 235 254 257 239 227 237 234 231 237 244 244 229 228 252 269 275 289 298 302 310 318 331 347 348 351 5 34 77 95 78 92 95 103 117 121 121 98 50 44 48 68 345
221 232 255 251 248 244 237 233 200 202 222 216 212 208 216 243 258 264 269 273 271 291 302 311 326 331 341 5 48 69 73 72 82 97 108 108 111 134 152 145 77 29 40 30
222 219 228 238 230 229 216 193 187 209 202 220 205 200 207 231 250 264 272 286 313 317 308 313 316 319 343 12 55 74 79 88 87 84 82 88 92 103 113 110 115 84 36 22
221 225 225 223 224 220 212 204 212 226 218 219 229 214 212 225 243 262 272 259 252 283 291 304 303 310 346 34 49 51 60 68 70 85 81 77 81 97 100 103 100 79 34 353
202 224 225 223 219 219 219 218 218 221 217 219 224 203 193 199 226 259 279 288 267 270 275 282 283 307 355 48 78 68 72 74 56 60 68 64 70 98 114 117 116 87 352 314
210 216 214 209 208 213 218 218 220 220 220 221 205 184 188 197 219 244 265 299 336 324 306 282 264 299 34 92 96 110 111 93 47 51 53 54 53 72 97 106 154 162 298 345
202 204 206 208 205 201 205 213 219 217 214 203 191 201 208 210 217 235 248 263 267 287 293 278 272 96 119 85 80 110 127 125 86 50 59 115 39 48 71 87 120 124 301 331
204 203 202 211 212 200 203 211 205 205 209 197 189 195 207 218 218 227 246 262 259 259 256 249 200 171 169 184 142 138 155 162 169 170 113 105 93 46 49 52 202 244 275 292
211 208 209 211 213 207 201 196 191 208 219 202 198 207 214 228 228 216 218 269 284 273 232 225 202 178 154 159 155 149 159 172 186 179 173 168 158 191 240 254 264 266 269 294
214 208 211 207 202 217 210 190 193 205 215 214 208 200 202 224 233 243 250 244 262 272 274 220 192 194 183 147 134 151 171 186 192 189 189 193 198 213 231 239 252 261 268 273
213 207 205 202 201 207 214 212 205 203 210 213 211 211 216 226 223 221 260 261 264 256 253 228 226 224 213 137 145 165 184 197 204 208 206 209 217 219 223 228 240 245 257 264
206 203 203 192 171 181 220 233 214 208 211 220 218 215 209 213 244 238 230 235 245 258 249 231 232 235 231 135 158 181 202 212 214 213 216 221 216 214 214 210 221 237 249 251
203 199 193 186 194 210 214 207 200 208 209 214 216 212 204 201 209 221 225 227 229 246 269 247 239 238 222 161 179 200 211 214 210 210 217 220 216 214 210 203 212 234 245 248
207 211 215 213 209 203 194 194 204 210 202 209 222 211 197 192 188 190 198 218 226 237 251 260 260 249 216 186 198 205 213 237 248 239 226 221 214 205 211 219 229 235 241 246
207 209 208 218 218 204 199 200 204 209 205 203 217 214 198 195 191 189 191 200 211 226 231 223 220 223 222 207 205 211 221 222 223 221 218 211 206 209 218 226 232 236 239 242
Height
1484 1481 1481 1482 1481 1480 1481 1480 1479 1473 1471 1468 1467 1467 1467 1468 1468 1469 1469 1470 1470 1470 1470 1470 1471 1472 1473 1475 1476 1478 1479 1480 1482 1484 1486 1488 1489 1491 1492 1494 1496 1497 1498 1499
1484 1480 1480 1481 1479 1477 1478 1477 1476 1474 1472 1467 1467 1466 1467 1467 1468 1468 1469 1469 1469 1469 1469 1469 1470 1470 1471 1472 1474 1475 1476 1477 1479 1481 1482 1484 1485 1487 1488 1490 1492 1493 1494 1495
1483 1480 1480 1483 1477 1476 1475 1473 1474 1473 1470 1466 1467 1467 1467 1467 1467 1468 1468 1468 1468 1467 1467 1468 1468 1468 1469 1469 1471 1472 1473 1474 1475 1477 1479 1480 1482 1483 1485 1486 1488 1489 1490 1491
1486 1486 1490 1476 1472 1472 1473 1472 1471 1469 1468 1468 1467 1467 1466 1467 1467 1467 1467 1466 1466 1465 1465 1465 1466 1466 1467 1467 1468 1469 1469 1470 1472 1474 1475 1477 1478 1480 1481 1482 1484 1485 1486 1487
1489 1487 1480 1474 1473 1473 1474 1473 1470 1469 1467 1467 1467 1466 1466 1466 1465 1465 1465 1465 1465 1464 1463 1463 1463 1463 1464 1464 1465 1465 1466 1467 1469 1470 1472 1473 1474 1475 1477 1479 1480 1482 1483 1484
1487 1487 1482 1475 1474 1472 1475 1475 1469 1467 1467 1467 1466 1468 1467 1465 1464 1464 1464 1464 1463 1462 1461 1461 1461 1461 1461 1461 1462 1462 1463 1464 1466 1467 1468 1470 1471 1472 1474 1475 1477 1478 1479 1481
1488 1486 1478 1475 1473 1473 1479 1474 1468 1466 1466 1466 1466 1467 1466 1464 1464 1463 1463 1462 1461 1461 1460 1460 1459 1459 1459 1458 1459 1459 1460 1461 1462 1464 1465 1467 1468 1469 1471 1472 1473 1475 1476 1477
1486 1485 1480 1472 1472 1474 1471 1468 1467 1466 1466 1466 1465 1465 1464 1463 1462 1462 1461 1461 1460 1459 1458 1458 1458 1457 1456 1456 1456 1456 1457 1458 1460 1461 1463 1464 1465 1466 1468 1469 1470 1472 1473 1474
1479 1476 1469 1468 1467 1467 1467 1467 1466 1466 1466 1465 1464 1463 1462 1462 1461 1461 1460 1459 1459 1458 1457 1457 1456 1456 1455 1454 1454 1454 1455 1456 1457 1459 1460 1461 1462 1463 1464 1466 1467 1468 1469 1470
1473 1468 1466 1466 1465 1465 1465 1465 1464 1464 1464 1463 1462 1462 1461 1461 1460 1460 1459 1458 1457 1456 1456 1455 1455 1454 1453 1453 1453 1453 1453 1454 1455 1456 1457 1458 1459 1460 1461 1462 1464 1465 1466 1467
1469 1465 1464 1462 1462 1462 1462 1462 1462 1462 1461 1461 1460 1460 1459 1459 1458 1458 1457 1457 1456 1455 1454 1454 1453 1452 1452 1451 1451 1451 1451 1452 1453 1454 1454 1455 1457 1458 1459 1460 1461 1462 1463 1464
1462 1460 1460 1459 1459 1459 1459 1459 1459 1459 1458 1458 1458 1458 1458 1457 1457 1456 1456 1455 1454 1454 1453 1452 1452 1451 1450 1450 1450 1449 1449 1450 1451 1452 1452 1453 1454 1455 1457 1458 1459 1460 1461 1462
1455 1455 1456 1456 1456 1456 1456 1456 1456 1456 1456 1456 1456 1456 1455 1455 1455 1454 1454 1453 1453 1452 1451 1451 1450 1449 1449 1449 1448 1448 1448 1448 1449 1450 1451 1452 1452 1453 1454 1456 1457 1458 1459 1459
1452 1453 1452 1452 1453 1453 1453 1453 1453 1453 1453 1453 1453 1453 1453 1453 1453 1452 1452 1452 1451 1451 1450 1450 1449 1448 1448 1448 1447 1447 1447 1447 1448 1448 1449 1450 1451 1452 1452 1453 1454 1455 1456 1457
1448 1449 1449 1449 1449 1450 1450 1450 1450 1450 1451 1451 1451 1451 1451 1451 1450 1450 1450 1450 1450 1449 1449 1448 1447 1447 1447 1447 1446 1446 1446 1446 1447 1447 1448 1449 1449 1450 1451 1452 1452 1453 1453 1454
1444 1445 1445 1445 1446 1446 1447 1447 1447 1447 1448 1448 1448 1448 1449 1449 1448 1448 1448 1448 1448 1447 1447 1447 1446 1446 1446 1446 1445 1445 1445 1445 1446 1446 1447 1447 1448 1449 1449 1450 1451 1451 1451 1452
1440 1440 1441 1441 1442 1443 1444 1444 1445 1445 1445 1445 1446 1446 1446 1446 1446 1446 1446 1446 1446 1446 1445 1445 1445 1445 1445 1445 1444 1444 1444 1444 1445 1445 1446 1446 1447 1447 1448 1448 1449 1449 1450 1451
1436 1436 1437 1438 1439 1440 1440 1441 1442 1442 1443 1443 1443 1443 1444 1444 1444 1444 1444 1444 1444 1443 1443 1443 1443 1443 1443 1443 1443 1443 1444 1444 1444 1445 1445 1446 1446 1446 1447 1447 1447 1448 1448 1449
1432 1433 1434 1435 1436 1436 1437 1438 1439 1440 1440 1441 1441 1441 1441 1442 1442 1442 1442 1442 1441 1441 1441 1442 1442 1442 1442 1442 1442 1443 1443 1443 1444 1444 1444 1445 1445 1445 1445 1446 1446 1446 1447 1447
1429 1430 1431 1432 1433 1433 1434 1435 1436 1437 1438 1438 1439 1439 1439 1439 1440 1440 1440 1439 1439 1439 1440 1440 1440 1440 1440 1440 1441 1441 1441 1442 1442 1442 1443 1443 1443 1444 1444 1444 1445 1445 1445 1446
1427 1427 1428 1429 1429 1430 1431 1432 1433 1434 1435 1436 1436 1436 1437 1437 1437 1437 1437 1437 1437 1438 1438 1438 1438 1438 1438 1439 1439 1439 1440 1440 1441 1441 1442 1442 1442 1442 1443 1443 1443 1444 1444 1444
1424 1425 1425 1426 1427 1428 1429 1430 1430 1431 1432 1433 1433 1434 1434 1434 1435 1435 1435 1435 1435 1435 1436 1436 1436 1436 1437 1437 1437 1438 1438 1439 1439 1440 1440 1440 1441 1441 1441 1442 1442 1442 1443 1443
1422 1422 1423 1424 1424 1425 1426 1427 1428 1428 1429 1430 1430 1431 1431 1432 1432 1432 1432 1433 1433 1433 1433 1434 1434 1434 1435 1435 1435 1436 1436 1437 1437 1438 1438 1439 1439 1439 1440 1440 1440 1441 1441 1441
1420 1420 1420 1421 1422 1422 1423 1424 1425 1426 1427 1427 1428 1428 1429 1429 1429 1430 1430 1431 1431 1431 1431 1431 1432 1432 1432 1433 1433 1434 1434 1435 1435 1436 1436 1437 1437 1437 1438 1438 1438 1439 1439 1439
1417 1417 1418 1418 1419 1419 1420 1421 1422 1423 1424 1424 1425 1426 1426 1427 1427 1427 1428 1428 1428 1429 1429 1429 1430 1430 1430 1430 1431 1431 1432 1432 1433 1434 1434 1435 1435 1435 1436 1436 1437 1437 1437 1437
1414 1414 1415 1415 1416 1416 1417 1418 1419 1420 1420 1421 1422 1423 1424 1424 1424 1425 1425 1426 1426 1426 1427 1427 1427 1428 1428 1428 1429 1429 1430 1430 1431 1431 1432 1432 1433 1433 1434 1434 1435 1435 1435 1435
1411 1411 1411 1412 1413 1413 1414 1415 1416 1417 1417 1418 1419 1420 1420 1421 1421 1422 1422 1423 1423 1424 1424 1425 1425 1425 1426 1426 1427 1427 1428 1428 1429 1429 1430 1430 1431 1431 1432 1432 1433 1433 1433 1434